CW6318 Weather Reports


Display with metric or nautical units.
time (UTC)temp
F
wind
direction
speed
MPH
gust
MPH
rain 1hr
in
rain 24hr
in
rain mn
in
humidity
%
barometer
mb
20260905071507 50 232 0.0 0.0 0.01 0.01 0.00 66 1000.6
20260905064503 51 232 0.0 0.0 0.00 0.00 0.00 66 1000.5
20260905063004 51 232 0.0 0.0 0.00 0.00 0.00 66 1000.4
20260905062018 51 232 0.0 0.0 0.00 0.00 0.00 66 1000.4
20260905061521 51 232 0.0 0.0 0.00 0.00 0.00 66 1000.4
20260905060010 51 232 0.0 0.0 0.00 0.01 0.00 66 1000.4
20260905055005 51 232 0.0 0.0 0.00 0.01 0.00 67 1000.4
20260905054010 52 232 0.0 0.0 0.00 0.01 0.00 68 1000.3
20260905053004 52 232 0.0 0.0 0.00 0.01 0.00 69 1000.3
20260905052500 52 232 0.0 0.0 0.00 0.01 0.00 69 1000.3
20260905051504 52 232 0.0 0.0 0.00 0.01 0.00 69 1000.4
20260905050511 52 232 0.0 0.0 0.00 0.01 0.00 69 1000.3
20260905044502 52 232 0.0 0.0 0.00 0.01 0.00 69 1000.3
20260905044001 52 232 0.0 0.0 0.00 0.01 0.00 69 1000.2
20260905043001 53 232 0.0 0.0 0.00 0.01 0.00 69 1000.2
20260905042501 53 232 0.0 0.0 0.00 0.01 0.00 70 1000.2
20260905042001 53 232 0.0 0.0 0.00 0.01 0.00 70 1000.2
20260905041505 53 232 0.0 0.0 0.00 0.01 0.00 70 1000.2
20260905041001 53 232 0.0 0.0 0.00 0.01 0.00 70 1000.1
20260905040500 53 232 0.0 0.0 0.00 0.01 0.00 70 1000.1
20260905040000 53 232 0.0 0.0 0.00 0.01 0.00 70 1000.1
20260905034000 54 232 0.0 0.0 0.00 0.01 0.00 71 999.9
20260905033001 54 232 0.0 0.0 0.00 0.01 0.00 71 999.7
20260905032500 54 232 0.0 0.0 0.00 0.01 0.00 71 999.7
20260905031959 55 232 0.0 0.0 0.00 0.01 0.00 71 999.6
20260905031002 55 232 0.0 0.0 0.00 0.01 0.00 71 999.5
20260905025500 56 232 0.0 0.0 0.00 0.01 0.00 71 999.4
20260905024500 56 232 0.0 0.0 0.00 0.01 0.00 71 999.4
20260905024001 56 232 0.0 0.0 0.00 0.01 0.00 71 999.4
20260905023458 56 232 0.0 0.0 0.00 0.01 0.00 71 999.4
20260905022959 56 232 0.0 0.0 0.00 0.01 0.00 71 999.4
20260905022459 56 232 0.0 0.0 0.00 0.01 0.00 71 999.5
20260905022000 56 232 0.0 0.0 0.00 0.01 0.00 71 999.5
20260905021502 56 232 0.0 0.0 0.00 0.01 0.00 71 999.5
20260905021001 57 232 0.0 0.0 0.00 0.01 0.00 71 999.5
20260905020501 57 232 0.0 0.0 0.00 0.01 0.00 70 999.4
20260905020005 57 232 0.0 0.0 0.00 0.01 0.00 70 999.2
20260905015502 57 232 0.0 0.0 0.00 0.01 0.00 71 999.1
20260905015001 57 232 0.0 0.0 0.00 0.01 0.00 71 999.0
20260905014502 57 232 0.0 0.0 0.00 0.01 0.00 72 998.9
20260905014001 57 232 0.0 0.0 0.00 0.01 0.00 73 998.8
20260905013502 57 232 0.0 0.0 0.00 0.01 0.00 73 998.8
20260905013001 57 232 0.0 0.0 0.00 0.01 0.00 73 998.8
20260905012501 57 232 0.0 0.0 0.00 0.01 0.00 73 998.7
20260905012001 57 232 0.0 0.0 0.00 0.01 0.00 72 998.6
20260905011500 57 232 0.0 0.0 0.00 0.01 0.00 72 998.6
20260905011002 57 232 0.0 0.0 0.00 0.01 0.00 73 998.6
20260905010502 57 232 0.0 0.0 0.00 0.01 0.00 73 998.6
20260905010002 57 232 0.0 0.0 0.00 0.01 0.00 73 998.6
20260905005004 57 232 0.0 0.0 0.00 0.02 0.00 74 998.6
20260905004503 58 232 0.0 0.0 0.00 0.02 0.00 75 998.6
20260905004003 58 232 0.0 0.0 0.00 0.02 0.00 75 998.6
20260905003500 58 232 0.0 0.0 0.00 0.02 0.00 75 998.5
20260905002505 58 232 0.0 0.0 0.00 0.02 0.00 75 998.5
20260905002001 58 232 0.0 0.0 0.00 0.02 0.00 75 998.5
20260905001503 58 232 0.0 0.0 0.00 0.02 0.00 75 998.6
20260905001009 58 232 0.0 0.0 0.00 0.02 0.00 75 998.6
20260905000503 58 232 0.0 0.0 0.00 0.02 0.00 75 998.7
20260905000004 57 232 0.0 0.0 0.00 0.02 0.00 76 998.8
20260904235004 57 232 0.0 0.0 0.00 0.02 0.00 75 998.6
20260904234500 57 232 0.0 0.0 0.00 0.02 0.00 76 998.5
20260904234006 57 232 0.0 0.0 0.00 0.02 0.00 75 998.5
20260904232003 57 232 0.0 0.0 0.00 0.02 0.00 74 998.6
20260904231505 56 232 0.0 0.0 0.00 0.02 0.00 74 998.5
20260904231003 56 232 0.0 0.0 0.00 0.02 0.00 72 998.6
20260904230002 56 232 0.0 0.0 0.00 0.02 0.00 70 998.5
20260904225502 56 232 0.0 0.0 0.00 0.02 0.00 69 998.5
20260904225006 56 232 0.0 0.0 0.00 0.02 0.00 70 998.5
20260904224003 56 232 0.0 0.0 0.00 0.02 0.00 72 998.5
20260904223508 57 232 0.0 0.0 0.00 0.02 0.00 73 998.5
20260904223007 57 232 0.0 0.0 0.00 0.02 0.00 73 998.4
20260904222005 57 232 0.0 0.0 0.00 0.02 0.00 74 998.4
20260904221007 57 232 0.0 0.0 0.00 0.02 0.00 74 998.4
20260904215004 58 227 0.0 0.0 0.00 0.03 0.00 69 998.4
20260904213504 58 227 0.0 0.0 0.00 0.03 0.00 69 998.0
20260904213004 58 227 0.0 0.0 0.00 0.03 0.00 69 997.9
20260904212507 58 227 0.0 0.0 0.00 0.03 0.00 69 997.9
20260904211008 58 227 0.0 0.0 0.00 0.03 0.00 69 997.5
20260904210009 58 227 0.0 0.0 0.00 0.05 0.00 71 997.4
20260904205504 58 227 0.0 0.0 0.00 0.05 0.00 74 997.4
20260904204004 61 227 0.0 0.0 0.00 0.05 0.00 75 997.3
20260904200507 61 233 0.0 0.0 0.00 0.05 0.00 75 997.1
20260904195006 61 233 0.0 0.0 0.00 0.06 0.00 75 997.0
20260904194007 62 233 0.0 0.0 0.00 0.06 0.00 75 997.0
20260904190504 58 233 0.0 0.0 0.00 0.06 0.00 65 997.3
20260904190002 57 233 0.0 0.0 0.00 0.09 0.00 66 997.4
20260904185505 57 233 0.0 0.0 0.00 0.09 0.00 65 997.4
20260904184501 57 233 0.0 0.0 0.00 0.09 0.00 65 997.4
20260904183504 56 233 0.0 0.0 0.00 0.09 0.00 62 997.5
20260904181503 55 233 0.0 0.0 0.00 0.09 0.00 58 997.4
20260904180502 56 233 0.0 0.0 0.00 0.09 0.00 60 997.2
20260904180003 56 233 0.0 0.0 0.00 0.11 0.00 60 997.3
20260904175503 55 233 0.0 0.0 0.00 0.11 0.00 61 997.4
20260904174502 54 233 0.0 0.0 0.00 0.11 0.00 59 997.2
20260904174002 54 233 0.0 0.0 0.00 0.11 0.00 58 997.2
20260904173501 54 233 0.0 0.0 0.00 0.11 0.00 56 997.1
20260904173003 53 233 0.0 0.0 0.00 0.11 0.00 56 997.2
20260904172503 53 233 0.0 0.0 0.00 0.11 0.00 54 997.2
20260904171503 51 233 0.0 0.0 0.00 0.11 0.00 52 997.1
20260904170503 51 233 0.0 0.0 0.00 0.11 0.00 52 997.2
20260904170004 51 233 0.0 0.0 0.00 0.11 0.00 52 997.3
20260904165507 51 233 0.0 0.0 0.00 0.11 0.00 52 997.2
20260904165003 50 233 0.0 0.0 0.00 0.11 0.00 53 997.2
20260904164506 50 233 0.0 0.0 0.00 0.11 0.00 52 997.2
20260904164008 50 233 0.0 0.0 0.00 0.11 0.00 53 997.1
20260904163501 50 233 0.0 0.0 0.00 0.11 0.00 53 997.2
20260904162503 50 233 0.0 0.0 0.00 0.11 0.00 53 997.2
20260904162003 50 233 0.0 0.0 0.00 0.11 0.00 53 997.1
20260904161500 49 233 0.0 1.0 0.00 0.11 0.00 53 997.1
20260904161001 49 233 1.0 1.0 0.00 0.11 0.00 54 997.2
20260904160500 49 237 0.0 0.0 0.00 0.11 0.00 53 997.2
20260904160005 49 237 0.0 0.0 0.00 0.11 0.00 54 997.2
20260904155500 49 237 0.0 0.0 0.00 0.11 0.00 54 997.2
20260904154000 48 237 0.0 0.0 0.00 0.11 0.00 55 997.2
20260904153458 48 237 0.0 0.0 0.00 0.11 0.00 55 997.2
20260904153005 47 237 0.0 0.0 0.00 0.11 0.00 56 997.2
20260904152501 46 237 0.0 0.0 0.00 0.11 0.00 57 997.2
20260904152000 46 237 0.0 0.0 0.00 0.11 0.00 57 997.2
20260904151500 46 237 0.0 0.0 0.00 0.11 0.00 57 997.1
20260904150959 46 237 0.0 0.0 0.00 0.11 0.00 58 997.0
20260904150501 46 237 0.0 0.0 0.00 0.11 0.00 58 997.0
20260904145001 46 236 0.0 0.0 0.00 0.12 0.00 58 997.1
20260904144501 46 236 0.0 0.0 0.00 0.12 0.00 58 997.0
20260904144002 46 236 0.0 0.0 0.00 0.12 0.00 58 997.0
20260904143506 46 236 0.0 0.0 0.00 0.12 0.00 58 996.9
20260904143001 46 236 0.0 0.0 0.00 0.12 0.00 58 996.8
20260904142501 46 236 0.0 0.0 0.00 0.12 0.00 58 996.8
20260904142003 46 236 0.0 0.0 0.00 0.12 0.00 59 996.6
20260904141501 46 236 0.0 0.0 0.00 0.12 0.00 59 996.6
20260904141002 46 236 0.0 0.0 0.00 0.12 0.00 59 996.5
20260904140003 46 236 0.0 0.0 0.00 0.12 0.00 59 996.3
20260904135002 46 236 0.0 0.0 0.00 0.12 0.00 59 996.4
20260904134502 46 236 0.0 0.0 0.00 0.12 0.00 59 996.3
20260904134002 46 236 0.0 0.0 0.00 0.12 0.00 59 996.2
20260904133501 46 236 0.0 0.0 0.00 0.12 0.00 60 996.2
20260904133003 46 236 0.0 0.0 0.00 0.12 0.00 60 996.2
20260904132501 46 236 0.0 0.0 0.00 0.12 0.00 60 996.2
20260904132002 46 236 0.0 0.0 0.00 0.12 0.00 60 996.1
20260904130500 46 236 0.0 0.0 0.00 0.12 0.00 60 996.0
20260904130004 46 236 0.0 0.0 0.00 0.12 0.00 60 996.0
20260904125000 46 236 0.0 0.0 0.00 0.12 0.00 60 995.9
20260904124500 46 236 0.0 0.0 0.00 0.12 0.00 60 995.8
20260904124001 46 236 0.0 0.0 0.00 0.12 0.00 60 995.8
20260904123500 46 236 0.0 0.0 0.00 0.12 0.00 60 995.8
20260904123000 46 236 0.0 0.0 0.00 0.12 0.00 60 995.7
20260904122502 46 236 0.0 0.0 0.00 0.12 0.00 60 995.7
20260904122000 46 236 0.0 0.0 0.00 0.12 0.00 60 995.7
20260904121000 46 236 0.0 0.0 0.00 0.12 0.00 61 995.7
20260904114959 46 236 0.0 0.0 0.00 0.13 0.00 61 995.7
20260904114523 46 236 0.0 0.0 0.00 0.13 0.00 61 995.7
20260904113000 46 236 0.0 0.0 0.00 0.13 0.00 62 995.7
20260904111001 46 236 0.0 0.0 0.00 0.13 0.00 62 995.7
20260904110501 46 236 0.0 0.0 0.00 0.13 0.00 62 995.6
20260904105500 46 236 0.0 0.0 0.00 0.13 0.00 62 995.6
20260904105002 46 236 0.0 0.0 0.00 0.13 0.00 62 995.6
20260904104001 46 236 0.0 0.0 0.00 0.13 0.00 62 995.5
20260904103500 46 236 0.0 0.0 0.00 0.13 0.00 62 995.4
20260904103005 46 236 0.0 0.0 0.00 0.13 0.00 63 995.3
20260904102502 46 236 0.0 0.0 0.00 0.13 0.00 63 995.3
20260904102000 46 236 0.0 0.0 0.00 0.13 0.00 63 995.3
20260904101500 46 236 0.0 0.0 0.00 0.13 0.00 63 995.3
20260904095501 47 236 0.0 0.0 0.00 0.14 0.00 63 995.2
20260904094504 47 236 0.0 0.0 0.00 0.14 0.00 63 995.2
20260904093501 47 236 0.0 0.0 0.00 0.14 0.00 64 995.1
20260904092505 47 236 0.0 0.0 0.00 0.14 0.00 64 995.0
20260904091505 47 236 0.0 0.0 0.00 0.14 0.00 64 995.0
20260904091004 47 236 0.0 0.0 0.00 0.14 0.00 65 994.9
20260904085459 47 236 0.0 0.0 0.00 0.15 0.00 65 995.0
20260904085000 47 236 0.0 0.0 0.00 0.15 0.00 65 995.0
20260904084459 47 236 0.0 0.0 0.00 0.15 0.00 65 995.0
20260904084001 48 236 0.0 0.0 0.00 0.15 0.00 65 994.9
20260904083501 48 236 0.0 0.0 0.00 0.15 0.00 66 994.9
20260904082503 48 236 0.0 0.0 0.00 0.15 0.00 66 995.0
20260904082000 48 236 0.0 0.0 0.00 0.15 0.00 65 994.9
20260904081305 48 236 0.0 0.0 0.00 0.15 0.00 65 995.0
20260904080506 48 236 0.0 0.0 0.00 0.15 0.00 65 995.0
20260904075505 49 236 0.0 0.0 0.00 0.16 0.00 65 994.9
20260904074459 49 236 0.0 0.0 0.00 0.16 0.00 64 995.0
20260904073005 49 236 0.0 0.0 0.00 0.16 0.00 64 994.9
20260904072000 49 236 0.0 0.0 0.00 0.16 0.00 64 994.9